Flag for Saudi Arabia Weather past 2 weeks in Qatif, Saudi Arabia

Now
82 °F

Sunny.


Feels Like: 80 °F
Forecast: 87 / 102 °F
Wind: 7 mph from Northwest

Location: King Fahd International Airport

Current Time: May 25, 2015 at 5:17:07 AM

Latest Report: May 25, 2015 at 5:00 AM


Visibility: 10 mi

Pressure: 29.71 "Hg

Humidity: 23%

Dew point: 41 °F

Location of QatifLocation

Historic Weather in Qatif — Graph

°F

Qatif temperature yesterday

Maximum temperature yesterday: 106 °F (at 1:00 PM)
Minimum temperature yesterday: 84 °F (at 2:00 AM)
Average temperature yesterday: 94 °F

Past Weeks' High & Low Weather Summary

 TemperatureHumidityPressure
High115 °F (May 22, 2:00 PM)58% (May 12, 3:00 AM)29.86 "Hg (May 12, 3:00 AM)
Low75 °F (May 18, 4:00 AM)5% (May 20, 2:00 PM)29.59 "Hg (May 10, 4:00 PM)
Average92 °F21%29.73 "Hg
* Reported May 10 4:00 AM — May 25 4:00 AM, Qatif, Weather by CustomWeather, © 2015

Note: Actual official high and low records may vary slightly from our data, if they occured in-between our weather recording intervals... More about our weather records

Advertising

Qatif weather history for previous 24 hours

 ConditionsComfort  
Time TempWeatherWind HumidityBarometerVisibility
4:00 AM
Mon, May 25
82 °FClear.7 mph21%29.71 "Hg10 mi
3:00 AM86 °FClear.12 mph20%29.71 "Hg10 mi
2:00 AM84 °FClear.9 mph23%29.68 "Hg10 mi
1:00 AM86 °FClear.10 mph25%29.71 "Hg10 mi
12:00 AM84 °FClear.15 mph31%29.71 "Hg10 mi
11:00 PM
Sun, May 24
88 °FClear.6 mph27%29.71 "Hg10 mi
10:00 PM90 °FClear.7 mph26%29.71 "Hg10 mi
9:00 PM91 °FClear.9 mph23%29.71 "Hg10 mi
8:00 PM93 °FClear.9 mph21%29.68 "Hg10 mi
7:00 PM95 °FClear.10 mph18%29.68 "Hg10 mi
6:00 PM97 °FSunny.13 mph18%29.68 "Hg10 mi
5:00 PM100 °FSunny.14 mph16%29.68 "Hg10 mi
4:00 PM104 °FSunny.15 mph13%29.68 "Hg10 mi
3:00 PM102 °FSunny.16 mph16%29.68 "Hg10 mi
2:00 PM106 °FSunny.16 mph12%29.68 "Hg10 mi
1:00 PM106 °FSunny.18 mph12%29.71 "Hg10 mi
12:00 PM104 °FSunny.18 mph12%29.71 "Hg5 mi
11:00 AM102 °FSunny.17 mph21%29.74 "Hg5 mi
10:00 AM102 °FSunny.15 mph13%29.74 "Hg5 mi
9:00 AM99 °FSunny.18 mph15%29.74 "Hg5 mi
8:00 AM95 °FSunny.14 mph16%29.74 "Hg5 mi
7:00 AM88 °FSunny.8 mph25%29.71 "Hg10 mi
6:00 AM84 °FSunny.6 mph35%29.71 "Hg10 mi
5:00 AM84 °FSunny.10 mph33%29.68 "Hg10 mi
Weather by CustomWeather, © 2015

See weather overviewHow to use our weather pages